Litchfield, MN

12:52 AM CDT on September 22, 2017 (GMT -0500)
Litchfield Municipal

Weather History for KLJF - June, 2013

Change the Weather History Date:

Tuesday, June 4, 2013

  Actual Average Record
Temperature  
Mean Temperature 58 °F -  
Max Temperature 62 °F 78 °F 96 °F (1968)
Min Temperature 55 °F 54 °F 32 °F (2002)
Degree Days  
Heating Degree Days 6    
Growing Degree Days 8 (Base 50)    
Moisture  
Dew Point 54 °F    
Average Humidity 86    
Maximum Humidity 100    
Minimum Humidity 55    
Precipitation  
Precipitation 0.00 in - - ()
Sea Level Pressure  
Sea Level Pressure 30.02 in    
Wind  
Wind Speed 11 mph (ESE)    
Max Wind Speed 18 mph    
Max Gust Speed 23 mph    
Visibility 9 miles    
Events Rain , Thunderstorm    
Averages and records for this station are not official NWS values.
T = Trace of Precipitation, MM = Missing Value Source: NWS Daily Summary

Daily Weather History Graph

Daily Weather History Graph

Search for Another Location

Airport or City:

Trip Planner

Search our weather history database for the weather conditions in past years. The results will help you decide how hot, cold, wet, or windy it might be!

Date:

Astronomy

Jun. 04, 2013 Rise Set
Actual Time 5:32 AM CDT 9:00 PM CDT
Civil Twilight 4:55 AM CDT 9:37 PM CDT
Nautical Twilight 4:07 AM CDT 10:25 PM CDT
Astronomical Twilight 3:05 AM CDT 11:28 PM CDT
Moon 3:12 AM CDT (6/4) 5:23 PM CDT (6/4)
Length of Visible Light 16h 41m
Length of Day
15h 28m
Waning Crescent, 14% of the Moon is Illuminated
Jun 4
Waning Crescent
Jun 8
New
Jun 16
First Quarter
Jun 23
Full
Jun 29
Last Quarter

Hourly Weather History & Observations

Time (CDT) Temp. Dew Point Humidity Pressure Visibility Wind Dir Wind Speed Gust Speed Precip Events Conditions
12:13 AM 62.6 °F 46.4 °F 55% 30.00 in 10.0 mi East 11.5 mph - N/A   Overcast
12:33 AM 62.6 °F 46.4 °F 55% 29.97 in 10.0 mi ESE 15.0 mph - N/A   Overcast
12:53 AM 62.6 °F 46.4 °F 55% 29.97 in 10.0 mi ESE 15.0 mph - N/A   Overcast
1:13 AM 60.8 °F 46.4 °F 59% 29.97 in 10.0 mi ESE 13.8 mph - N/A   Scattered Clouds
1:31 AM 60.8 °F 46.4 °F 59% 29.99 in 10.0 mi ESE 10.4 mph - N/A   Clear
1:53 AM 59.0 °F 46.4 °F 63% 30.02 in 10.0 mi ESE 6.9 mph - N/A   Clear
2:13 AM 57.2 °F 46.4 °F 67% - 10.0 mi ESE 4.6 mph - N/A   Mostly Cloudy
2:33 AM 57.2 °F 48.2 °F 72% 30.04 in 10.0 mi ESE 4.6 mph - N/A   Mostly Cloudy
2:53 AM 57.2 °F 46.4 °F 67% 30.04 in 10.0 mi ESE 5.8 mph - N/A   Unknown
3:13 AM 60.8 °F 46.4 °F 59% 30.06 in 10.0 mi North 5.8 mph - N/A   Unknown
3:33 AM 60.8 °F 46.4 °F 59% 30.03 in 10.0 mi North - - N/A   Overcast
3:53 AM 57.2 °F 48.2 °F 72% 30.03 in 10.0 mi East 6.9 mph - N/A   Overcast
4:13 AM 57.2 °F 48.2 °F 72% 30.02 in 10.0 mi ESE 5.8 mph - N/A   Mostly Cloudy
4:33 AM 60.8 °F 46.4 °F 59% 29.99 in 10.0 mi ESE 12.7 mph 17.3 mph N/A   Mostly Cloudy
4:53 AM 59.0 °F 46.4 °F 63% 29.97 in 10.0 mi ESE 11.5 mph - N/A   Mostly Cloudy
5:12 AM 60.8 °F 46.4 °F 59% 29.97 in 10.0 mi East 9.2 mph - N/A   Scattered Clouds
5:33 AM 59.0 °F 48.2 °F 67% 29.95 in 10.0 mi East 8.1 mph - N/A Rain Light Rain
5:53 AM 59.0 °F 48.2 °F 67% 29.95 in 10.0 mi East 10.4 mph - N/A   Mostly Cloudy
6:12 AM 59.0 °F 51.8 °F 77% 29.98 in 10.0 mi SE 6.9 mph - N/A Rain Light Rain
6:33 AM 57.2 °F 53.6 °F 88% 29.98 in 10.0 mi ESE 5.8 mph - N/A   Light Drizzle
6:53 AM 57.2 °F 53.6 °F 88% 29.99 in 10.0 mi ESE 6.9 mph - N/A   Overcast
7:12 AM 59.0 °F 53.6 °F 82% 30.00 in 10.0 mi SE 10.4 mph - N/A   Overcast
7:33 AM 59.0 °F 53.6 °F 82% 29.99 in 10.0 mi SE 10.4 mph - N/A   Overcast
7:53 AM 59.0 °F 53.6 °F 82% 29.99 in 10.0 mi SE 9.2 mph - N/A   Overcast
8:12 AM 59.0 °F 53.6 °F 82% 29.99 in 10.0 mi ESE 10.4 mph - N/A   Overcast
8:33 AM 60.8 °F 53.6 °F 77% 29.99 in 10.0 mi ESE 10.4 mph - N/A   Overcast
8:52 AM 60.8 °F 53.6 °F 77% 30.00 in 10.0 mi ESE 8.1 mph - N/A   Overcast
9:13 AM 60.8 °F 53.6 °F 77% 30.00 in 10.0 mi SE 12.7 mph - N/A   Overcast
9:33 AM 57.2 °F 55.4 °F 94% 30.03 in 7.0 mi SE 8.1 mph - N/A Rain Rain
9:52 AM 57.2 °F 55.4 °F 94% 30.04 in 2.0 mi SE 5.8 mph - N/A Rain Rain
10:13 AM 57.2 °F 57.2 °F 100% 30.04 in 2.5 mi ESE 9.2 mph - N/A Rain Rain
10:33 AM 57.2 °F 57.2 °F 100% 30.04 in 4.0 mi East 8.1 mph - N/A Rain Light Rain
10:52 AM 57.2 °F 57.2 °F 100% 30.04 in 4.0 mi East 8.1 mph - N/A Rain Light Rain
11:13 AM 57.2 °F 57.2 °F 100% 30.03 in 5.0 mi East 9.2 mph - N/A Rain Light Rain
11:32 AM 57.2 °F 57.2 °F 100% 30.03 in 7.0 mi East 10.4 mph - N/A Rain Rain
11:53 AM 57.2 °F 57.2 °F 100% 30.03 in 5.0 mi ESE 11.5 mph - N/A   Drizzle
12:13 PM 57.2 °F 57.2 °F 100% 30.02 in 7.0 mi ESE 13.8 mph - N/A   Light Drizzle
12:32 PM 59.0 °F 59.0 °F 100% 30.02 in 7.0 mi ESE 12.7 mph - N/A   Light Drizzle
12:53 PM 57.2 °F 57.2 °F 100% 30.02 in 7.0 mi SE 13.8 mph - N/A   Light Drizzle
1:13 PM 57.2 °F 57.2 °F 100% 30.02 in 7.0 mi SE 13.8 mph 17.3 mph N/A   Overcast
1:32 PM 57.2 °F 57.2 °F 100% 30.02 in 10.0 mi SE 15.0 mph - N/A   Overcast
1:53 PM 57.2 °F 57.2 °F 100% 30.02 in 10.0 mi SE 12.7 mph - N/A   Overcast
2:13 PM 57.2 °F 57.2 °F 100% 30.03 in 4.0 mi SE 8.1 mph - N/A   Light Drizzle
2:32 PM 57.2 °F 57.2 °F 100% 30.03 in 10.0 mi SE 8.1 mph - N/A   Overcast
2:53 PM 59.0 °F 57.2 °F 94% 30.02 in 10.0 mi SE 11.5 mph 18.4 mph N/A   Overcast
3:13 PM 59.0 °F 57.2 °F 94% 30.03 in 10.0 mi SE 11.5 mph 17.3 mph N/A   Overcast
3:32 PM 59.0 °F 57.2 °F 94% 30.02 in 10.0 mi SE 11.5 mph 18.4 mph N/A   Overcast
3:53 PM 59.0 °F 57.2 °F 94% 30.02 in 10.0 mi SE 11.5 mph 17.3 mph N/A   Overcast
4:13 PM 59.0 °F 57.2 °F 94% 30.02 in 10.0 mi SE 10.4 mph - N/A   Overcast
4:33 PM 59.0 °F 57.2 °F 94% 30.02 in 10.0 mi SE 13.8 mph - N/A   Overcast
4:53 PM 59.0 °F 57.2 °F 94% 30.03 in 10.0 mi SE 10.4 mph - N/A   Overcast
5:13 PM 59.0 °F 57.2 °F 94% 30.03 in 10.0 mi ESE 12.7 mph - N/A   Overcast
5:33 PM 59.0 °F 57.2 °F 94% 30.03 in 10.0 mi ESE 12.7 mph - N/A   Overcast
5:53 PM 57.2 °F 57.2 °F 100% 30.03 in 10.0 mi ESE 12.7 mph - N/A   Overcast
6:13 PM 57.2 °F 57.2 °F 100% 30.02 in 10.0 mi ESE 13.8 mph 19.6 mph N/A   Overcast
6:33 PM 57.2 °F 57.2 °F 100% 30.02 in 7.0 mi ESE 10.4 mph - N/A   Light Drizzle
6:53 PM 57.2 °F 57.2 °F 100% 30.02 in 3.0 mi SE 12.7 mph - N/A   Light Drizzle
7:13 PM 57.2 °F 57.2 °F 100% 30.03 in 5.0 mi SE 10.4 mph 18.4 mph N/A   Overcast
7:32 PM 57.2 °F 57.2 °F 100% 30.03 in 10.0 mi SE 13.8 mph 19.6 mph N/A   Overcast
7:53 PM 57.2 °F 55.4 °F 94% 30.03 in 10.0 mi SE 15.0 mph - N/A Thunderstorm Overcast
8:13 PM 57.2 °F 55.4 °F 94% 30.03 in 10.0 mi SE 13.8 mph 20.7 mph N/A   Overcast
8:32 PM 57.2 °F 55.4 °F 94% 30.03 in 10.0 mi SE 18.4 mph 23.0 mph N/A   Overcast
8:53 PM 57.2 °F 55.4 °F 94% 30.03 in 10.0 mi SE 16.1 mph - N/A   Overcast
9:13 PM 57.2 °F 53.6 °F 88% 30.03 in 10.0 mi SE 15.0 mph 20.7 mph N/A   Overcast
9:32 PM 57.2 °F 53.6 °F 88% 30.03 in 10.0 mi SE 15.0 mph 23.0 mph N/A   Overcast
9:53 PM 57.2 °F 53.6 °F 88% 30.03 in 10.0 mi SE 10.4 mph 19.6 mph N/A   Overcast
10:13 PM 57.2 °F 53.6 °F 88% 30.03 in 10.0 mi SE 12.7 mph 17.3 mph N/A   Overcast
10:32 PM 55.4 °F 53.6 °F 94% 30.03 in 10.0 mi SE 12.7 mph 19.6 mph N/A   Overcast
10:53 PM 55.4 °F 53.6 °F 94% 30.03 in 10.0 mi SE 13.8 mph - N/A   Overcast
11:13 PM 55.4 °F 53.6 °F 94% 30.04 in 10.0 mi SE 9.2 mph - N/A   Overcast
11:32 PM 55.4 °F 53.6 °F 94% 30.04 in 10.0 mi SE 9.2 mph - N/A   Overcast
11:53 PM 55.4 °F 53.6 °F 94% 30.04 in 10.0 mi SE 11.5 mph - N/A   Overcast